Wetterdaten: Freitag, 28.11.2014
Datum Zeit Temp. A. Feuchte A. Luftdruck Regen Wind Richtung Richtung Sonnenschein ET UV Solar Taupunkt Windchill Windben Empfang
28.11.2014 00:00 0,4 C 72 % 1012,8 hPa 0,0 l/m 7,2 km/h (2 Bft) S-SW 198 0 min 0,000 mm 0,0 UV-I 0 W/m -4,0 C -0,4 C 15,8 km/h (3 Bft) 0,00 %
28.11.2014 00:15 0,4 C 74 % 1012,6 hPa 0,0 l/m 23,4 km/h (4 Bft) O 91 0 min 0,000 mm 0,0 UV-I 0 W/m -3,7 C -10,6 C 28,1 km/h (4 Bft) 0,00 %
28.11.2014 00:30 0,4 C 73 % 1012,5 hPa 0,0 l/m 5,8 km/h (2 Bft) O-SO 123 0 min 0,000 mm 0,0 UV-I 0 W/m -3,9 C 0,4 C 11,9 km/h (2 Bft) 0,00 %
28.11.2014 00:45 0,4 C 74 % 1012,6 hPa 0,0 l/m 13,3 km/h (3 Bft) O 88 0 min 0,000 mm 0,0 UV-I 0 W/m -3,7 C -5,4 C 19,8 km/h (3 Bft) 0,00 %
28.11.2014 01:00 0,4 C 74 % 1012,6 hPa 0,0 l/m 19,4 km/h (3 Bft) O 95 0 min 0,000 mm 0,0 UV-I 0 W/m -3,7 C -8,8 C 28,1 km/h (4 Bft) 0,00 %
28.11.2014 01:15 0,4 C 74 % 1012,8 hPa 0,0 l/m 14,8 km/h (3 Bft) O-SO 111 0 min 0,000 mm 0,0 UV-I 0 W/m -3,7 C -6,4 C 19,8 km/h (3 Bft) 0,00 %
28.11.2014 01:30 0,4 C 74 % 1012,8 hPa 0,0 l/m 6,5 km/h (2 Bft) O 87 0 min 0,000 mm 0,0 UV-I 0 W/m -3,7 C 0,3 C 15,8 km/h (3 Bft) 0,00 %
28.11.2014 01:45 0,3 C 75 % 1012,8 hPa 0,0 l/m 11,9 km/h (2 Bft) O-NO 77 0 min 0,000 mm 0,0 UV-I 0 W/m -3,6 C -4,6 C 15,8 km/h (3 Bft) 0,00 %
28.11.2014 02:00 0,3 C 75 % 1012,9 hPa 0,0 l/m 8,3 km/h (2 Bft) O 80 0 min 0,000 mm 0,0 UV-I 0 W/m -3,6 C -1,6 C 11,9 km/h (2 Bft) 0,00 %
28.11.2014 02:15 0,3 C 75 % 1012,9 hPa 0,0 l/m 13,0 km/h (3 Bft) O 97 0 min 0,000 mm 0,0 UV-I 0 W/m -3,6 C -5,4 C 19,8 km/h (3 Bft) 0,00 %
28.11.2014 02:30 0,3 C 75 % 1012,8 hPa 0,0 l/m 9,0 km/h (2 Bft) O 87 0 min 0,000 mm 0,0 UV-I 0 W/m -3,6 C -2,3 C 11,9 km/h (2 Bft) 0,00 %
28.11.2014 02:45 0,3 C 75 % 1013,0 hPa 0,0 l/m 19,4 km/h (3 Bft) SO 135 0 min 0,000 mm 0,0 UV-I 0 W/m -3,6 C -9,0 C 19,8 km/h (3 Bft) 0,00 %
28.11.2014 03:00 0,3 C 75 % 1013,0 hPa 0,0 l/m 4,3 km/h (1 Bft) O 80 0 min 0,000 mm 0,0 UV-I 0 W/m -3,6 C 0,3 C 7,9 km/h (2 Bft) 0,00 %
28.11.2014 03:15 0,3 C 75 % 1013,1 hPa 0,0 l/m 7,9 km/h (2 Bft) O 87 0 min 0,000 mm 0,0 UV-I 0 W/m -3,6 C -1,2 C 11,9 km/h (2 Bft) 0,00 %
28.11.2014 03:30 0,2 C 75 % 1013,3 hPa 0,0 l/m 9,0 km/h (2 Bft) SO 128 0 min 0,000 mm 0,0 UV-I 0 W/m -3,7 C -2,4 C 11,9 km/h (2 Bft) 0,00 %
28.11.2014 03:45 0,2 C 76 % 1013,0 hPa 0,0 l/m 23,4 km/h (4 Bft) O-SO 104 0 min 0,000 mm 0,0 UV-I 0 W/m -3,5 C -10,8 C 32,0 km/h (5 Bft) 0,00 %
28.11.2014 04:00 0,2 C 76 % 1013,1 hPa 0,0 l/m 14,8 km/h (3 Bft) O 89 0 min 0,000 mm 0,0 UV-I 0 W/m -3,5 C -6,6 C 19,8 km/h (3 Bft) 0,00 %
28.11.2014 04:15 0,2 C 76 % 1013,3 hPa 0,0 l/m 7,2 km/h (2 Bft) S 172 0 min 0,000 mm 0,0 UV-I 0 W/m -3,5 C -0,6 C 11,9 km/h (2 Bft) 0,00 %
28.11.2014 04:30 0,1 C 77 % 1013,4 hPa 0,0 l/m 13,0 km/h (3 Bft) O 84 0 min 0,000 mm 0,0 UV-I 0 W/m -3,4 C -5,6 C 15,8 km/h (3 Bft) 0,00 %
28.11.2014 04:45 0,1 C 77 % 1013,3 hPa 0,0 l/m 11,9 km/h (2 Bft) O-NO 58 0 min 0,000 mm 0,0 UV-I 0 W/m -3,4 C -4,8 C 15,8 km/h (3 Bft) 0,00 %
28.11.2014 05:00 0,1 C 77 % 1013,1 hPa 0,0 l/m 4,0 km/h (1 Bft) O-SO 116 0 min 0,000 mm 0,0 UV-I 0 W/m -3,4 C 0,1 C 7,9 km/h (2 Bft) 0,00 %
28.11.2014 05:15 0,1 C 78 % 1013,3 hPa 0,0 l/m 9,4 km/h (2 Bft) SO 125 0 min 0,000 mm 0,0 UV-I 0 W/m -3,3 C -2,8 C 15,8 km/h (3 Bft) 0,00 %
28.11.2014 05:30 0,1 C 79 % 1013,4 hPa 0,0 l/m 5,8 km/h (2 Bft) O 84 0 min 0,000 mm 0,0 UV-I 0 W/m -3,1 C 0,1 C 7,9 km/h (2 Bft) 0,00 %
28.11.2014 05:45 0,1 C 78 % 1013,4 hPa 0,0 l/m 4,0 km/h (1 Bft) S 173 0 min 0,000 mm 0,0 UV-I 0 W/m -3,3 C 0,1 C 7,9 km/h (2 Bft) 0,00 %
28.11.2014 06:00 0,1 C 78 % 1013,6 hPa 0,0 l/m 9,7 km/h (2 Bft) O-SO 113 0 min 0,000 mm 0,0 UV-I 0 W/m -3,3 C -3,1 C 19,8 km/h (3 Bft) 0,00 %
28.11.2014 06:15 0,1 C 79 % 1013,5 hPa 0,0 l/m 4,3 km/h (1 Bft) O-SO 104 0 min 0,000 mm 0,0 UV-I 0 W/m -3,1 C 0,1 C 7,9 km/h (2 Bft) 0,00 %
28.11.2014 06:30 0,1 C 79 % 1013,6 hPa 0,0 l/m 4,7 km/h (1 Bft) O 97 0 min 0,000 mm 0,0 UV-I 0 W/m -3,1 C 0,1 C 7,9 km/h (2 Bft) 0,00 %
28.11.2014 06:45 0,2 C 79 % 1013,6 hPa 0,0 l/m 10,4 km/h (2 Bft) O-NO 62 0 min 0,000 mm 0,0 UV-I 0 W/m -3,0 C -3,6 C 15,8 km/h (3 Bft) 0,00 %
28.11.2014 07:00 0,2 C 79 % 1013,7 hPa 0,0 l/m 2,2 km/h (1 Bft) SO 132 0 min 0,000 mm 0,0 UV-I 0 W/m -3,0 C 0,2 C 7,9 km/h (2 Bft) 0,00 %
28.11.2014 07:15 0,2 C 79 % 1014,1 hPa 0,0 l/m 13,0 km/h (3 Bft) O 97 0 min 0,000 mm 0,0 UV-I 0 W/m -3,0 C -5,5 C 15,8 km/h (3 Bft) 0,00 %
28.11.2014 07:30 0,2 C 80 % 1014,1 hPa 0,0 l/m 1,8 km/h (1 Bft) S-SW 195 0 min 0,000 mm 0,0 UV-I 0 W/m -2,8 C 0,2 C 4,0 km/h (1 Bft) 0,00 %
28.11.2014 07:45 0,2 C 80 % 1014,1 hPa 0,0 l/m 9,4 km/h (2 Bft) O-NO 68 0 min 0,000 mm 0,0 UV-I 0 W/m -2,8 C -2,7 C 15,8 km/h (3 Bft) 0,00 %
28.11.2014 08:00 0,2 C 80 % 1013,7 hPa 0,0 l/m 9,0 km/h (2 Bft) O 101 0 min 0,000 mm 0,0 UV-I 0 W/m -2,8 C -2,4 C 11,9 km/h (2 Bft) 0,00 %
28.11.2014 08:15 0,2 C 79 % 1014,2 hPa 0,0 l/m 9,4 km/h (2 Bft) O 88 0 min 0,000 mm 0,0 UV-I 0 W/m -3,0 C -2,7 C 15,8 km/h (3 Bft) 0,00 %
28.11.2014 08:30 0,2 C 79 % 1014,1 hPa 0,0 l/m 13,0 km/h (3 Bft) SO 139 0 min 0,000 mm 0,0 UV-I 8 W/m -3,0 C -5,5 C 15,8 km/h (3 Bft) 0,00 %
28.11.2014 08:45 0,3 C 79 % 1014,1 hPa 0,0 l/m 14,0 km/h (3 Bft) O 85 0 min 0,000 mm 0,0 UV-I 19 W/m -2,9 C -6,0 C 19,8 km/h (3 Bft) 0,00 %
28.11.2014 09:00 0,3 C 79 % 1014,4 hPa 0,0 l/m 20,5 km/h (4 Bft) O-SO 105 0 min 0,000 mm 0,0 UV-I 13 W/m -2,9 C -9,5 C 24,1 km/h (4 Bft) 0,00 %
28.11.2014 09:15 0,3 C 78 % 1014,5 hPa 0,0 l/m 14,4 km/h (3 Bft) O-SO 106 0 min 0,000 mm 0,0 UV-I 48 W/m -3,1 C -6,3 C 24,1 km/h (4 Bft) 0,00 %
28.11.2014 09:30 0,4 C 77 % 1014,4 hPa 0,0 l/m 10,8 km/h (2 Bft) O-NO 71 0 min 0,000 mm 0,0 UV-I 64 W/m -3,1 C -3,6 C 19,8 km/h (3 Bft) 0,00 %
28.11.2014 09:45 0,5 C 76 % 1014,6 hPa 0,0 l/m 14,4 km/h (3 Bft) O-SO 105 0 min 0,000 mm 0,0 UV-I 71 W/m -3,2 C -6,0 C 15,8 km/h (3 Bft) 0,00 %
28.11.2014 10:00 0,5 C 76 % 1014,8 hPa 0,0 l/m 11,9 km/h (2 Bft) O 95 0 min 0,000 mm 0,0 UV-I 60 W/m -3,2 C -4,4 C 15,8 km/h (3 Bft) 0,00 %
28.11.2014 10:15 0,6 C 76 % 1014,3 hPa 0,0 l/m 9,0 km/h (2 Bft) O 98 0 min 0,000 mm 1,0 UV-I 109 W/m -3,1 C -1,9 C 11,9 km/h (2 Bft) 0,00 %
28.11.2014 10:30 0,6 C 76 % 1014,2 hPa 0,0 l/m 4,3 km/h (1 Bft) O 80 0 min 0,000 mm 1,0 UV-I 125 W/m -3,1 C 0,6 C 7,9 km/h (2 Bft) 0,00 %
28.11.2014 10:45 0,7 C 75 % 1014,4 hPa 0,0 l/m 14,4 km/h (3 Bft) O-NO 74 0 min 0,000 mm 1,0 UV-I 130 W/m -3,2 C -5,8 C 19,8 km/h (3 Bft) 0,00 %
28.11.2014 11:00 0,7 C 75 % 1014,2 hPa 0,0 l/m 9,7 km/h (2 Bft) O-SO 120 0 min 0,000 mm 1,0 UV-I 163 W/m -3,2 C -2,4 C 11,9 km/h (2 Bft) 0,00 %
28.11.2014 11:15 0,8 C 76 % 1014,0 hPa 0,0 l/m 15,8 km/h (3 Bft) O-SO 121 0 min 0,000 mm 1,0 UV-I 153 W/m -2,9 C -6,5 C 19,8 km/h (3 Bft) 0,00 %
28.11.2014 11:30 0,8 C 76 % 1014,0 hPa 0,0 l/m 15,8 km/h (3 Bft) O-SO 112 0 min 0,000 mm 1,0 UV-I 110 W/m -2,9 C -6,5 C 19,8 km/h (3 Bft) 0,00 %
28.11.2014 11:45 0,8 C 76 % 1013,9 hPa 0,0 l/m 9,0 km/h (2 Bft) O-NO 69 0 min 0,000 mm 0,0 UV-I 82 W/m -2,9 C -1,7 C 11,9 km/h (2 Bft) 0,00 %
28.11.2014 12:00 0,8 C 76 % 1013,8 hPa 0,0 l/m 20,5 km/h (4 Bft) O-SO 114 0 min 0,000 mm 0,0 UV-I 92 W/m -2,9 C -8,8 C 24,1 km/h (4 Bft) 0,00 %
28.11.2014 12:15 0,7 C 75 % 1013,8 hPa 0,0 l/m 9,0 km/h (2 Bft) S 172 0 min 0,000 mm 0,0 UV-I 77 W/m -3,2 C -1,8 C 11,9 km/h (2 Bft) 0,00 %
28.11.2014 12:30 0,8 C 75 % 1013,6 hPa 0,0 l/m 3,2 km/h (1 Bft) W-SW 250 0 min 0,000 mm 0,0 UV-I 68 W/m -3,1 C 0,8 C 7,9 km/h (2 Bft) 0,00 %
28.11.2014 12:45 0,8 C 75 % 1014,0 hPa 0,0 l/m 11,9 km/h (2 Bft) O 94 0 min 0,000 mm 1,0 UV-I 110 W/m -3,1 C -4,0 C 15,8 km/h (3 Bft) 0,00 %
28.11.2014 13:00 0,8 C 75 % 1013,8 hPa 0,0 l/m 14,8 km/h (3 Bft) S 174 0 min 0,000 mm 0,0 UV-I 85 W/m -3,1 C -5,9 C 19,8 km/h (3 Bft) 0,00 %
28.11.2014 13:15 0,9 C 75 % 1013,8 hPa 0,0 l/m 11,9 km/h (2 Bft) O 99 0 min 0,000 mm 0,0 UV-I 54 W/m -3,0 C -3,9 C 15,8 km/h (3 Bft) 0,00 %
28.11.2014 13:30 0,9 C 75 % 1013,4 hPa 0,0 l/m 13,3 km/h (3 Bft) S 181 0 min 0,000 mm 1,0 UV-I 114 W/m -3,0 C -4,8 C 19,8 km/h (3 Bft) 0,00 %
28.11.2014 13:45 0,9 C 75 % 1013,7 hPa 0,0 l/m 12,2 km/h (2 Bft) O-SO 120 0 min 0,000 mm 0,0 UV-I 82 W/m -3,0 C -4,1 C 19,8 km/h (3 Bft) 0,00 %
28.11.2014 14:00 0,9 C 75 % 1013,6 hPa 0,0 l/m 3,2 km/h (1 Bft) O-NO 65 0 min 0,000 mm 0,0 UV-I 32 W/m -3,0 C 0,9 C 4,0 km/h (1 Bft) 0,00 %
28.11.2014 14:15 0,8 C 76 % 1013,4 hPa 0,0 l/m 2,2 km/h (1 Bft) O-NO 68 0 min 0,000 mm 0,0 UV-I 19 W/m -2,9 C 0,8 C 11,9 km/h (2 Bft) 0,00 %
28.11.2014 14:30 0,8 C 76 % 1013,9 hPa 0,0 l/m 14,4 km/h (3 Bft) O 98 0 min 0,000 mm 0,0 UV-I 6 W/m -2,9 C -5,7 C 19,8 km/h (3 Bft) 0,00 %
28.11.2014 14:45 0,8 C 76 % 1013,7 hPa 0,0 l/m 19,4 km/h (3 Bft) O 94 0 min 0,000 mm 0,0 UV-I 0 W/m -2,9 C -8,3 C 28,1 km/h (4 Bft) 0,00 %
28.11.2014 15:00 0,8 C 76 % 1014,0 hPa 0,0 l/m 4,0 km/h (1 Bft) O-NO 58 0 min 0,000 mm 0,0 UV-I 0 W/m -2,9 C 0,8 C 11,9 km/h (2 Bft) 0,00 %
28.11.2014 15:15 0,8 C 77 % 1014,1 hPa 0,0 l/m 15,8 km/h (3 Bft) O-SO 108 0 min 0,000 mm 0,0 UV-I 0 W/m -2,8 C -6,5 C 24,1 km/h (4 Bft) 0,00 %
28.11.2014 15:30 0,7 C 77 % 1014,0 hPa 0,0 l/m 8,3 km/h (2 Bft) NO 50 0 min 0,000 mm 0,0 UV-I 0 W/m -2,9 C -1,2 C 15,8 km/h (3 Bft) 0,00 %
28.11.2014 15:45 0,7 C 78 % 1014,1 hPa 0,0 l/m 13,0 km/h (3 Bft) O-NO 67 0 min 0,000 mm 0,0 UV-I 0 W/m -2,7 C -4,9 C 19,8 km/h (3 Bft) 0,00 %
28.11.2014 16:00 0,6 C 78 % 1014,0 hPa 0,0 l/m 13,0 km/h (3 Bft) O-NO 72 0 min 0,000 mm 0,0 UV-I 0 W/m -2,8 C -5,0 C 15,8 km/h (3 Bft) 0,00 %
28.11.2014 16:15 0,6 C 78 % 1014,2 hPa 0,0 l/m 6,5 km/h (2 Bft) O 79 0 min 0,000 mm 0,0 UV-I 0 W/m -2,8 C 0,5 C 11,9 km/h (2 Bft) 0,00 %
28.11.2014 16:30 0,6 C 78 % 1014,2 hPa 0,0 l/m 10,8 km/h (2 Bft) O-SO 112 0 min 0,000 mm 0,0 UV-I 0 W/m -2,8 C -3,4 C 15,8 km/h (3 Bft) 0,00 %
28.11.2014 16:45 0,6 C 78 % 1014,3 hPa 0,0 l/m 16,6 km/h (3 Bft) O-NO 73 0 min 0,000 mm 0,0 UV-I 0 W/m -2,8 C -7,2 C 24,1 km/h (4 Bft) 0,00 %
28.11.2014 17:00 0,6 C 79 % 1014,1 hPa 0,0 l/m 22,3 km/h (4 Bft) O-SO 119 0 min 0,000 mm 0,0 UV-I 0 W/m -2,6 C -9,9 C 32,0 km/h (5 Bft) 0,00 %
28.11.2014 17:15 0,5 C 79 % 1014,6 hPa 0,0 l/m 7,2 km/h (2 Bft) O-NO 68 0 min 0,000 mm 0,0 UV-I 0 W/m -2,7 C -0,3 C 11,9 km/h (2 Bft) 0,00 %
28.11.2014 17:30 0,5 C 79 % 1014,8 hPa 0,0 l/m 16,6 km/h (3 Bft) O-SO 109 0 min 0,000 mm 0,0 UV-I 0 W/m -2,7 C -7,3 C 19,8 km/h (3 Bft) 0,00 %
28.11.2014 17:45 0,5 C 79 % 1014,8 hPa 0,0 l/m 22,0 km/h (4 Bft) O 99 0 min 0,000 mm 0,0 UV-I 0 W/m -2,7 C -9,9 C 28,1 km/h (4 Bft) 0,00 %
28.11.2014 18:00 0,6 C 79 % 1014,6 hPa 0,0 l/m 11,5 km/h (2 Bft) O-SO 114 0 min 0,000 mm 0,0 UV-I 0 W/m -2,6 C -3,9 C 15,8 km/h (3 Bft) 0,00 %
28.11.2014 18:15 0,5 C 79 % 1014,7 hPa 0,0 l/m 4,0 km/h (1 Bft) SO 135 0 min 0,000 mm 0,0 UV-I 0 W/m -2,7 C 0,5 C 11,9 km/h (2 Bft) 0,00 %
28.11.2014 18:30 0,5 C 79 % 1014,7 hPa 0,0 l/m 9,4 km/h (2 Bft) O-SO 115 0 min 0,000 mm 0,0 UV-I 0 W/m -2,7 C -2,4 C 15,8 km/h (3 Bft) 0,00 %
28.11.2014 18:45 0,5 C 79 % 1014,9 hPa 0,0 l/m 9,0 km/h (2 Bft) O-SO 108 0 min 0,000 mm 0,0 UV-I 0 W/m -2,7 C -2,0 C 11,9 km/h (2 Bft) 0,00 %
28.11.2014 19:00 0,5 C 80 % 1014,8 hPa 0,0 l/m 14,8 km/h (3 Bft) O-SO 104 0 min 0,000 mm 0,0 UV-I 0 W/m -2,5 C -6,3 C 19,8 km/h (3 Bft) 0,00 %
28.11.2014 19:15 0,4 C 80 % 1015,1 hPa 0,0 l/m 8,3 km/h (2 Bft) O-SO 111 0 min 0,000 mm 0,0 UV-I 0 W/m -2,6 C -1,5 C 11,9 km/h (2 Bft) 0,00 %
28.11.2014 19:30 0,5 C 80 % 1015,0 hPa 0,0 l/m 9,7 km/h (2 Bft) O 100 0 min 0,000 mm 0,0 UV-I 0 W/m -2,5 C -2,6 C 15,8 km/h (3 Bft) 0,00 %
28.11.2014 19:45 0,5 C 80 % 1015,0 hPa 0,0 l/m 10,4 km/h (2 Bft) SO 132 0 min 0,000 mm 0,0 UV-I 0 W/m -2,5 C -3,2 C 15,8 km/h (3 Bft) 0,00 %
28.11.2014 20:00 0,5 C 80 % 1015,2 hPa 0,0 l/m 18,0 km/h (3 Bft) O 90 0 min 0,000 mm 0,0 UV-I 0 W/m -2,5 C -8,0 C 24,1 km/h (4 Bft) 0,00 %
28.11.2014 20:15 0,5 C 80 % 1015,2 hPa 0,0 l/m 10,8 km/h (2 Bft) O-SO 110 0 min 0,000 mm 0,0 UV-I 0 W/m -2,5 C -3,5 C 11,9 km/h (2 Bft) 0,00 %
28.11.2014 20:30 0,5 C 80 % 1015,3 hPa 0,0 l/m 13,3 km/h (3 Bft) SO 125 0 min 0,000 mm 0,0 UV-I 0 W/m -2,5 C -5,3 C 19,8 km/h (3 Bft) 0,00 %
28.11.2014 20:45 0,5 C 80 % 1015,0 hPa 0,0 l/m 16,9 km/h (3 Bft) O-SO 109 0 min 0,000 mm 0,0 UV-I 0 W/m -2,5 C -7,4 C 19,8 km/h (3 Bft) 0,00 %
28.11.2014 21:00 0,5 C 80 % 1015,3 hPa 0,0 l/m 17,3 km/h (3 Bft) O-SO 114 0 min 0,000 mm 0,0 UV-I 0 W/m -2,5 C -7,7 C 19,8 km/h (3 Bft) 0,00 %
28.11.2014 21:15 0,5 C 80 % 1015,6 hPa 0,0 l/m 8,3 km/h (2 Bft) O-SO 123 0 min 0,000 mm 0,0 UV-I 0 W/m -2,5 C -1,4 C 11,9 km/h (2 Bft) 0,00 %
28.11.2014 21:30 0,5 C 80 % 1015,4 hPa 0,0 l/m 6,8 km/h (2 Bft) O 82 0 min 0,000 mm 0,0 UV-I 0 W/m -2,5 C 0,1 C 15,8 km/h (3 Bft) 0,00 %
28.11.2014 21:45 0,5 C 80 % 1015,6 hPa 0,0 l/m 5,4 km/h (1 Bft) O-SO 121 0 min 0,000 mm 0,0 UV-I 0 W/m -2,5 C 0,5 C 7,9 km/h (2 Bft) 0,00 %
28.11.2014 22:00 0,4 C 81 % 1015,6 hPa 0,0 l/m 2,9 km/h (1 Bft) SO 141 0 min 0,000 mm 0,0 UV-I 0 W/m -2,5 C 0,4 C 4,0 km/h (1 Bft) 0,00 %
28.11.2014 22:15 0,4 C 80 % 1015,8 hPa 0,0 l/m 6,8 km/h (2 Bft) O 93 0 min 0,000 mm 0,0 UV-I 0 W/m -2,6 C 0,0 C 7,9 km/h (2 Bft) 0,00 %
28.11.2014 22:30 0,4 C 80 % 1015,8 hPa 0,0 l/m 11,5 km/h (2 Bft) S-SO 167 0 min 0,000 mm 0,0 UV-I 0 W/m -2,6 C -4,2 C 11,9 km/h (2 Bft) 0,00 %
28.11.2014 22:45 0,5 C 80 % 1015,8 hPa 0,0 l/m 15,5 km/h (3 Bft) O-SO 118 0 min 0,000 mm 0,0 UV-I 0 W/m -2,5 C -6,7 C 19,8 km/h (3 Bft) 0,00 %
28.11.2014 23:00 0,4 C 81 % 1016,0 hPa 0,0 l/m 17,3 km/h (3 Bft) O 98 0 min 0,000 mm 0,0 UV-I 0 W/m -2,5 C -7,8 C 19,8 km/h (3 Bft) 0,00 %
28.11.2014 23:15 0,4 C 81 % 1015,9 hPa 0,0 l/m 9,4 km/h (2 Bft) SO 134 0 min 0,000 mm 0,0 UV-I 0 W/m -2,5 C -2,5 C 15,8 km/h (3 Bft) 0,00 %
28.11.2014 23:30 0,4 C 81 % 1015,6 hPa 0,0 l/m 19,8 km/h (3 Bft) O 101 0 min 0,000 mm 0,0 UV-I 0 W/m -2,5 C -9,0 C 28,1 km/h (4 Bft) 0,00 %
_ Min-Zeit 04:30 00:00 00:30 - 07:30 - - - - - - 00:00 03:45 07:30 00:00
Minimum _ 0,1 C 72 % 1012,5 hPa - 1,8 km/h (1 Bft) - - - - - - -4,0 C -10,8 C 4,0 km/h (1 Bft) 0,00 %
_ Max-Zeit 13:15 22:00 23:00 00:00 00:15 - - 00:00 00:00 10:15 11:00 22:00 14:00 03:45 00:00
Maximum _ 0,9 C 81 % 1016,0 hPa 0,0 l/m 23,4 km/h
O (4 Bft)
- - 0 min 0,000 mm 1,0 UV-I 163 W/m -2,5 C 0,9 C 32,0 km/h
O-SO (5 Bft)
0,00 %
Durchschnitt _ 0,5 C 77 % 1014,1 hPa #0,0 l/m 11,3 km/h (2 Bft) O - #0 min. #0,000 mm 1,0 UV-I 76 W/m -3,0 C -3,8 C 16,1 km/h (3 Bft) 0,00 %